Regional Weather Roundup
Issued by NWS Cleveland, OH

Home | Current Version | Previous Version | Graphics & Text | Print | Product List | Glossary On
Versions: 1 2 3 4 5 6 7 8 9 10 11 12 13 14 15 16 17 18 19 20 21 22 23 24 25 26 27 28 29 30 31 32 33 34 35 36 37 38 39 40 41 42 43 44 45 46 47 48 49 50
000
ASUS41 KCLE 301510
RWRCLE
OHIO REGIONAL WEATHER ROUNDUP
NATIONAL WEATHER SERVICE CLEVELAND, OH
1100 AM EDT SUN AUG 30 2015

NOTE: "FAIR" INDICATES FEW OR NO CLOUDS BELOW 12,000 FEET WITH NO
SIGNIFICANT WEATHER AND/OR OBSTRUCTIONS TO VISIBILITY.

OHZ001>008-015>018-024>027-034-035-043-044-301600-
   NORTHWEST OHIO

CITY           SKY/WX    TMP DP  RH WIND       PRES   REMARKS
DEFIANCE       MOSUNNY   76  69  79 SW7       30.08S
FINDLAY        MOSUNNY   78  69  73 SW9       30.09R
TOLEDO EXPRESS CLOUDY    75  70  84 S6        30.08S
TOLEDO EXEC    CLOUDY    74  68  81 S7        30.09S
LIMA           MOSUNNY   75  68  78 SW7       30.10S
$$

OHZ009>014-019>023-028>033-038-089-301600-
   NORTHEAST OHIO

CITY           SKY/WX    TMP DP  RH WIND       PRES   REMARKS
CLE-HOPKINS    CLOUDY    71  68  90 S3        30.14R
CLE-LAKEFRONT  CLOUDY    72  68  87 S8        30.10S
CUY CO. ARPT   CLOUDY    73  70  88 SW7       30.12R
LORAIN-ELYRIA  CLOUDY    71  68  90 S5        30.12S
ASHTABULA      PTSUNNY   72  69  90 SW8       30.13R
AKRON-CANTON   CLOUDY    71  66  84 VRB6      30.15R HAZE
WOOSTER        CLOUDY    70  66  87 SW5       30.15R
MANSFIELD      CLOUDY    73  67  81 SW7       30.14R
YOUNGSTOWN     PTSUNNY   73  67  81 SW8       30.14R
$$

OHZ042-051>053-060>062-070>072-077>081-301600-
  SOUTHWEST OHIO

CITY           SKY/WX    TMP DP  RH WIND       PRES   REMARKS
CINC-COVINGTON PTSUNNY   75  69  81 SW6       30.13R
CINC-LUNKEN    SUNNY     75  70  84 S6        30.12S
HAMILTON       SUNNY     79  69  71 VRB3      30.12S
DAYTON         PTSUNNY   75  71  87 S7        30.13R
WRIGHT-PAT AFB PTSUNNY   76  70  82 SW7       30.12R
DAYTON GENERAL MOSUNNY   74  68  81 SW3       30.12S
WILMINGTON     MOSUNNY   75  68  78 SW9       30.13S
$$

OHZ036-037-039>041-045>050-054>059-063>069-073>076-082>088-301600-
  CENTRAL AND SOUTHEAST OHIO

CITY           SKY/WX    TMP DP  RH WIND       PRES   REMARKS
COLUMBUS       PTSUNNY   73  69  87 S3        30.12R
OSU AIRPORT    CLOUDY    74  69  85 S8        30.13R
BOLTON FIELD   SUNNY     73  70  88 S7        30.13S
RICKENBACK AFB PTSUNNY   76  69  78 S7        30.13R
NEWARK         PTSUNNY   74  69  85 S6        30.13R
MARION         CLOUDY    73  65  75 S8        30.13R
LANCASTER      MOSUNNY   79  69  71 S6        30.13S
ZANESVILLE     PTSUNNY   76  65  68 S6        30.14R
NEW PHILLY     CLOUDY    74  68  81 VRB3      30.15R
$$



USA.gov is the U.S. government's official web portal to all federal, state and local government web resources and services.